TimeMDT,TemperatureF,Dew PointF,Humidity,Sea Level PressureIn,VisibilityMPH,Wind Direction,Wind SpeedMPH,Gust SpeedMPH,PrecipitationIn,Events,Conditions,WindDirDegrees,DateUTC
12:53 AM,43.0,32.0,65,29.96,10.0,NW,20.7,26.5,N/A,,Overcast,320,2012-10-09 06:53:00
2:53 AM,41.0,32.0,70,30.00,10.0,NW,17.3,26.5,0.00,,Overcast,310,2012-10-09 08:53:00
3:53 AM,39.9,30.9,70,30.01,10.0,NW,15.0,-,N/A,,Overcast,320,2012-10-09 09:53:00
4:53 AM,39.9,30.9,70,30.03,10.0,West,15.0,-,N/A,,Overcast,280,2012-10-09 10:53:00
5:53 AM,39.0,28.9,67,30.07,10.0,WNW,9.2,-,N/A,,Overcast,300,2012-10-09 11:53:00
6:53 AM,39.0,30.9,73,30.08,10.0,West,12.7,20.7,N/A,,Overcast,280,2012-10-09 12:53:00
7:53 AM,39.0,28.0,65,30.11,10.0,WNW,13.8,-,N/A,,Overcast,290,2012-10-09 13:53:00
8:53 AM,39.9,28.9,65,30.13,10.0,WNW,13.8,-,N/A,,Overcast,290,2012-10-09 14:53:00
9:53 AM,41.0,28.9,62,30.15,10.0,WNW,12.7,-,N/A,,Overcast,290,2012-10-09 15:53:00
10:53 AM,42.1,28.9,60,30.17,10.0,WNW,10.4,-,N/A,,Overcast,300,2012-10-09 16:53:00
11:53 AM,44.1,28.0,53,30.18,10.0,NNW,8.1,-,N/A,,Overcast,340,2012-10-09 17:53:00
12:53 PM,43.0,27.0,53,30.18,10.0,NW,3.5,-,N/A,,Overcast,310,2012-10-09 18:53:00
1:53 PM,45.0,27.0,49,30.18,10.0,Calm,Calm,-,N/A,,Overcast,0,2012-10-09 19:53:00
2:53 PM,46.0,27.0,47,30.16,10.0,SSW,5.8,-,N/A,,Mostly Cloudy,200,2012-10-09 20:53:00
3:53 PM,48.9,25.0,39,30.15,10.0,SE,4.6,-,N/A,,Overcast,140,2012-10-09 21:53:00
4:53 PM,48.9,24.1,38,30.14,10.0,Calm,Calm,-,N/A,,Partly Cloudy,0,2012-10-09 22:53:00
5:53 PM,48.0,26.1,42,30.14,10.0,SE,4.6,-,N/A,,Clear,130,2012-10-09 23:53:00
6:53 PM,45.0,27.0,49,30.15,10.0,Calm,Calm,-,N/A,,Clear,0,2012-10-10 00:53:00
7:53 PM,43.0,26.1,51,30.16,10.0,Calm,Calm,-,N/A,,Clear,0,2012-10-10 01:53:00
8:53 PM,37.0,25.0,62,30.19,10.0,SSE,4.6,-,N/A,,Clear,150,2012-10-10 02:53:00
9:53 PM,36.0,26.1,67,30.20,10.0,ESE,3.5,-,N/A,,Clear,120,2012-10-10 03:53:00
10:53 PM,35.1,27.0,72,30.20,10.0,SE,3.5,-,N/A,,Clear,140,2012-10-10 04:53:00
11:53 PM,35.1,26.1,70,30.19,10.0,ESE,3.5,-,N/A,,Clear,120,2012-10-10 05:53:00